Richmond, VA

11:38 AM EST on December 09, 2019 (GMT -0500)
Richmond International

Weather History for KRIC - October, 2019

Change the Weather History Date:

Wednesday, October 30, 2019

  Actual Average Record
Temperature  
Mean Temperature 60 °F 55 °F  
Max Temperature 66 °F 67 °F 86 °F (1946)
Min Temperature 55 °F 44 °F 23 °F (1965)
Degree Days  
Heating Degree Days 4 10  
Month to date heating degree days 110 194  
Since 1 July heating degree days 110 223  
Cooling Degree Days 0 0  
Month to date cooling degree days 77 40  
Year to date cooling degree days 2047 1544  
Growing Degree Days 10 (Base 50)    
Moisture  
Dew Point 58 °F    
Average Humidity 92    
Maximum Humidity 100    
Minimum Humidity 73    
Precipitation  
Precipitation 0.11 in 0.11 in 1.08 in (1949)
Month to date precipitation 4.00 2.88  
Year to date precipitation 37.15 37.00  
Snow  
Snow 0.00 in 0.00 in T in (1954)
Month to date snowfall 0.0 0.0  
Since 1 July snowfall 0.0 0.0  
Snow Depth 0.00 in    
Sea Level Pressure  
Sea Level Pressure 30.21 in    
Wind  
Wind Speed 4 mph ()    
Max Wind Speed 14 mph    
Max Gust Speed 20 mph    
Visibility 9.1 miles    
Events Rain    
T = Trace of Precipitation, MM = Missing Value Source: Averaged Metar Reports

Daily Weather History Graph

Daily Weather History Graph

Search for Another Location

Airport or City:

Astronomy

Oct. 30, 2019 Rise Set
Actual Time 7:31 AM EDT 6:13 PM EDT
Civil Twilight 7:04 AM EDT 6:40 PM EDT
Nautical Twilight 6:34 AM EDT 7:11 PM EDT
Astronomical Twilight 6:03 AM EDT 7:41 PM EDT
Moon 10:10 AM EDT (10/30) 8:22 PM EDT (10/30)
Length of Visible Light 11h 35m
Length of Day
10h 41m
Waxing Crescent, 8% of the Moon is Illuminated
Oct 30
Waxing Crescent
Nov 4
First Quarter
Nov 12
Full
Nov 19
Last Quarter
Nov 26
New

Hourly Weather History & Observations

Time (EDT) Temp. Dew Point Humidity Pressure Visibility Wind Dir Wind Speed Gust Speed Precip Events Conditions
12:54 AM 57.0 °F 55.0 °F 93% 30.27 in 10.0 mi Calm Calm - N/A   Overcast
1:54 AM 55.9 °F 55.0 °F 97% 30.26 in 10.0 mi Calm Calm - N/A   Overcast
2:54 AM 57.0 °F 54.0 °F 89% 30.25 in 10.0 mi Calm Calm - N/A   Overcast
3:54 AM 57.0 °F 55.0 °F 93% 30.25 in 10.0 mi North 4.6 mph - N/A   Overcast
4:54 AM 55.9 °F 54.0 °F 93% 30.26 in 10.0 mi NNW 4.6 mph - N/A   Mostly Cloudy
5:06 AM 55.9 °F 55.0 °F 97% 30.24 in 10.0 mi East 3.5 mph - N/A   Mostly Cloudy
5:54 AM 57.0 °F 55.0 °F 93% 30.26 in 10.0 mi ENE 4.6 mph - N/A   Overcast
6:54 AM 57.9 °F 55.9 °F 93% 30.26 in 10.0 mi East 4.6 mph - N/A   Overcast
7:47 AM 59.0 °F 57.0 °F 93% 30.25 in 10.0 mi Calm Calm - N/A   Overcast
7:54 AM 59.0 °F 57.0 °F 93% 30.27 in 10.0 mi Calm Calm - N/A   Overcast
8:07 AM 59.0 °F 57.0 °F 93% 30.25 in 10.0 mi East 3.5 mph - N/A   Overcast
8:54 AM 60.1 °F 57.9 °F 93% 30.28 in 10.0 mi Calm Calm - N/A   Overcast
9:29 AM 61.0 °F 59.0 °F 93% 30.27 in 10.0 mi North - - N/A   Overcast
9:33 AM 61.0 °F 59.0 °F 93% 30.27 in 10.0 mi East 6.9 mph - N/A   Overcast
9:54 AM 61.0 °F 59.0 °F 93% 30.28 in 10.0 mi East 3.5 mph - N/A   Overcast
10:54 AM 63.0 °F 57.9 °F 84% 30.28 in 10.0 mi ESE 6.9 mph - N/A   Overcast
11:54 AM 66.0 °F 57.0 °F 73% 30.26 in 10.0 mi SE 8.1 mph - N/A   Overcast
12:54 PM 64.9 °F 57.9 °F 78% 30.24 in 10.0 mi SE 9.2 mph - 0.00 in Rain Light Rain
1:10 PM 64.0 °F 57.9 °F 80% 30.21 in 10.0 mi SE 6.9 mph - 0.00 in Rain Light Rain
1:54 PM 64.0 °F 60.1 °F 87% 30.21 in 10.0 mi SE 4.6 mph - 0.00 in Rain Light Rain
2:45 PM 63.0 °F 60.1 °F 90% 30.18 in 5.0 mi SE 5.8 mph - 0.04 in Rain Light Rain
2:54 PM 63.0 °F 60.1 °F 90% 30.19 in 5.0 mi SE 5.8 mph - 0.05 in Rain Light Rain
3:06 PM 62.6 °F 60.8 °F 94% 30.18 in 5.0 mi SE 4.6 mph - N/A Rain Light Rain
3:26 PM 63.0 °F 60.1 °F 90% 30.18 in 7.0 mi SE 5.8 mph - 0.01 in Rain Light Rain
3:34 PM 63.0 °F 60.1 °F 90% 30.17 in 7.0 mi SE 6.9 mph - 0.01 in Rain Light Rain
3:54 PM 62.1 °F 60.1 °F 93% 30.19 in 5.0 mi SE 5.8 mph - 0.02 in Rain Light Rain
4:54 PM 62.1 °F 60.1 °F 93% 30.17 in 10.0 mi ESE 6.9 mph - 0.02 in   Overcast
5:54 PM 62.1 °F 60.1 °F 93% 30.16 in 7.0 mi ESE 4.6 mph - 0.00 in Rain Light Rain
6:16 PM 61.0 °F 60.1 °F 97% 30.14 in 8.0 mi ESE 4.6 mph - 0.01 in Rain Light Rain
6:54 PM 61.0 °F 60.1 °F 97% 30.15 in 10.0 mi ESE 6.9 mph - 0.01 in   Overcast
7:54 PM 61.0 °F 60.1 °F 97% 30.14 in 9.0 mi SE 8.1 mph - N/A   Overcast
8:54 PM 62.1 °F 61.0 °F 96% 30.13 in 9.0 mi SE 8.1 mph - 0.00 in   Overcast
9:54 PM 62.1 °F 61.0 °F 96% 30.12 in 10.0 mi SE 9.2 mph - 0.00 in   Overcast
10:54 PM 63.0 °F 61.0 °F 93% 30.11 in 10.0 mi SSE 8.1 mph - 0.00 in   Overcast
11:48 PM 62.6 °F 60.8 °F 94% 30.06 in 10.0 mi SSE 9.2 mph - 0.00 in Rain Light Rain
11:54 PM 63.0 °F 61.0 °F 93% 30.06 in 10.0 mi SSE 10.4 mph - 0.00 in Rain Light Rain